Regional Weather Roundup
Issued by NWS

Home | Current Version | Previous Version | Graphics & Text | Print | Product List | Glossary On
Versions: 1 2 3 4 5 6 7 8 9 10 11 12 13 14 15 16 17 18 19 20 21 22 23 24 25 26 27 28 29 30 31 32 33 34 35 36 37 38 39 40 41 42 43 44 45 46 47 48 49 50
000
ASUS43 KFSD 171702
RWRSD

WEATHER ROUNDUP FOR SOUTH DAKOTA
NATIONAL WEATHER SERVICE SIOUX FALLS SD
1200 PM CDT THU AUG 17 2017

NOTE: "FAIR" INDICATES FEW OR NO CLOUDS BELOW 12,000 FEET WITH NO
SIGNIFICANT WEATHER AND/OR OBSTRUCTIONS TO VISIBILITY.


SDZ001>005-009-010-012>017-171800-
NORTHWEST AND NORTH CENTRAL SOUTH DAKOTA

CITY           SKY/WX    TMP DP  RH WIND       PRES   REMARKS
BUFFALO          N/A     79  48  33 NW9       29.86S
FAITH            N/A     80  51  36 S20       29.89F
MOBRIDGE       SUNNY     76  60  57 SE8       29.89F
$$

SDZ012>016-024>037-041>051-057-063-072>074-171800-
SOUTHWEST AND SOUTH CENTRAL SOUTH DAKOTA

CITY           SKY/WX    TMP DP  RH WIND       PRES   REMARKS
RAPID CTY ARPT CLOUDY    78  54  43 SE6       29.93F
PIERRE         SUNNY     75  53  46 E8        29.91F
CUSTER         SUNNY     72  44  36 VRB5      30.09F
PHILIP         SUNNY     86  51  29 SE7G18    29.90F
PINE RIDGE     CLOUDY    79  58  48 S14       29.98F
SPEARFISH      LGT RAIN  82  41  23 N7G13     29.97F
WINNER         FAIR      83  56  39 CALM      29.95F
$$

SDZ004>011-016>023-039-040-171800-
NORTHEAST SOUTH DAKOTA

CITY           SKY/WX    TMP DP  RH WIND       PRES   REMARKS
ABERDEEN       SUNNY     76  60  57 W8        29.91S
WATERTOWN      SUNNY     72  61  68 NW15      29.88R
BROOKINGS      SUNNY     70  60  70 NW17      29.89R
SISSETON         N/A     71  64  78 N12       29.84F
$$

SDZ017-020-022-023-036>040-048>070-171800-
SOUTHEAST SOUTH DAKOTA

CITY           SKY/WX    TMP DP  RH WIND       PRES   REMARKS
SIOUX FALLS    MOSUNNY   74  62  66 NW12G21   29.89S
HURON          SUNNY     74  62  66 NW12      29.92S
CHAMBERLAIN    SUNNY     77  56  48 CALM      29.95F
MITCHELL       SUNNY     75  61  61 NW10      29.94S
YANKTON        SUNNY     74  61  63 NW15      29.94S
$$

ABBREVIATIONS USED IN REMARKS
   TC - TEMPERATURE IN CELSIUS
  WCI - WIND CHILL INDEX
   HX - HEAT INDEX
  VSB - VISIBILITY





USA.gov is the U.S. government's official web portal to all federal, state and local government web resources and services.